Retour au catalogue

STARLINK-32635

ActifCommunicationsVLEO
NORAD 62155·PAYLOAD·🇺🇸 United States

Lancé Nov 30, 2024 depuis Cape Canaveral Space Force Station

Loading…

Prochains Passages (prochaines 24 heures)

TLE

FraisSource: CelesTrak SupGP

Époque: Sep 14, 2026, 21:00 UTC

1 62155C 24224S   26257.87548611 -.00013452  00000+0 -48711-3 0  2572
2 62155  42.9997 177.2614 0001406 260.7653 178.9475 15.27592046    12

Suivez STARLINK-32635 en temps réel avec AllMySat

Download on the App Store